Location: Baggettsville
(36.4767°N, 86.7303°W)
Time: 03:59:54
(UTC+00:00)

Envisat - Pass Details

Date: 23 September 2021
Orbit: 764 x 766 km, 98.2° (Epoch: 15 October)

Event Time Altitude Azimuth Distance (km) Brightness Sun altitude
Rises 10:14:36 0° 23° (NNE) 3,235 6.8 -17.0°
Reaches altitude 10° 10:17:07 10° 32° (NNE) 2,305 6.1 -16.5°
Maximum altitude 10:21:43 34° 97° (E) 1,244 4.8 -15.6°
Drops below altitude 10° 10:26:16 10° 162° (SSE) 2,291 5.6 -14.7°
Sets 10:28:45 0° 171° (S) 3,212 6.2 -14.2°
